Regional Weather Roundup
Issued by NWS Little Rock, AR

Home | Current Version | Previous Version | Text Only | Print | Product List | Glossary On
Versions: 1 2 3 4 5 6 7 8 9 10 11 12 13 14 15 16 17 18 19 20 21 22 23 24 25 26 27 28 29 30 31 32 33 34 35 36 37 38 39 40 41 42 43 44 45 46 47 48 49 50
000
ASUS44 KLZK 060905
RWRLZK

WEATHER ROUNDUP FOR ARKANSAS
NATIONAL WEATHER SERVICE LITTLE ROCK AR
400 AM CDT MON JUL 06 2015

NOTE: "FAIR" INDICATES FEW OR NO CLOUDS BELOW 12,000 FEET WITH NO
SIGNIFICANT WEATHER AND/OR OBSTRUCTIONS TO VISIBILITY.

ARZ001-003-010-029-061000-
NORTHWEST ARKANSAS

CITY           SKY/WX    TMP DP  RH WIND       PRES   REMARKS
FAYETTEVILLE   MOCLDY    72  70  93 CALM      30.02S
FORT SMITH     MOCLDY    73  69  87 NE5       29.99R THUNDER
HARRISON       PTCLDY    70  70 100 CALM      30.03S
BENTONVILLE    MOCLDY   N/A N/A N/A S3        30.01S
ROGERS         PTCLDY    71  69  93 S5        30.02S
SILOAM SPGS    MOCLDY    72  66  83 S6        30.02S
HIGHFILL       MOCLDY    73  71  93 S6        30.01S
$$

ARZ004-005-016-061000-
NORTH CENTRAL ARKANSAS

CITY           SKY/WX    TMP DP  RH WIND       PRES   REMARKS
BATESVILLE     CLEAR     70  66  88 E5        30.03R
FLIPPIN        PTCLDY    72  68  88 E3        29.99S
MTN HOME       CLOUDY    71  69  93 CALM      30.01S
$$

ARZ040-041-061000-
WEST CENTRAL ARKANSAS

CITY           SKY/WX    TMP DP  RH WIND       PRES   REMARKS
MENA           CLOUDY    77  72  83 S3        30.03S
MOUNT IDA      MOCLDY    71  69  93 CALM      30.02R
$$

ARZ009-017-025-026-028-061000-
NORTHEAST ARKANSAS

CITY           SKY/WX    TMP DP  RH WIND       PRES   REMARKS
JONESBORO      MOCLDY    71  71 100 S6        30.03R
NEWPORT        MOCLDY    72  72 100 S6        30.04R
WALNUT RIDGE   CLEAR     72  68  88 S8        30.03R
BLYTHEVILLE    CLEAR     72  72 100 S3        30.04S
$$

ARZ022-023-033-042-044-061000-
CENTRAL ARKANSAS

CITY           SKY/WX    TMP DP  RH WIND       PRES   REMARKS
LITTLE ROCK    MOCLDY    70  64  83 CALM      30.04S
N LITTLE ROCK    N/A     68  67  97 SW3       30.04S
SEARCY         CLEAR     68  67  96 S5        30.05R
HOT SPRINGS    CLOUDY    72  69  90 E5        30.05R
RUSSELLVILLE   CLEAR     72  70  93 VRB3      30.01S
CLINTON        CLOUDY    70  70 100 CALM      30.05R FOG
$$

ARZ036-061000-
EAST ARKANSAS

CITY           SKY/WX    TMP DP  RH WIND       PRES   REMARKS
WEST MEMPHIS   CLEAR     68  68 100 S6        30.05R
$$

ARZ050-053-066-070-073-061000-
SOUTHWEST ARKANSAS

CITY           SKY/WX    TMP DP  RH WIND       PRES   REMARKS
ARKADELPHIA    CLOUDY    70  70 100 CALM      30.05R
CAMDEN         PTCLDY    66  64  94 CALM      30.04S
TEXARKANA      CLEAR     72  71  97 S6        30.03R
EL DORADO      PTCLDY    68  67  96 S5        30.05S
DE QUEEN       PTCLDY    72  70  93 E3        30.00R
$$

ARZ056-057-069-061000-
SOUTHEAST ARKANSAS

CITY           SKY/WX    TMP DP  RH WIND       PRES   REMARKS
PINE BLUFF     MOCLDY    68  67  96 S5        30.05S
STUTTGART      CLEAR     70  66  88 S6        30.03R
MONTICELLO     CLEAR     67  67 100 CALM      30.06R

$$




USA.gov is the U.S. government's official web portal to all federal, state and local government web resources and services.